Regional Weather Roundup
Issued by NWS Bismarck, ND

Home | Current Version | Previous Version | Text Only | Print | Product List | Glossary Off
Versions: 1 2 3 4 5 6 7 8 9 10 11 12 13 14 15 16 17 18 19 20 21 22 23 24 25 26 27 28 29 30 31 32 33 34 35 36 37 38 39 40 41 42 43 44 45 46 47 48 49 50

000
ASUS43 KBIS 232010
RWRBIS

NWR BROADCAST TEXT
NATIONAL WEATHER SERVICE BISMARCK ND
200 PM CST TUE JAN 23 2018

NOTE: "FAIR" INDICATES FEW OR NO CLOUDS BELOW 12,000 FEET WITH NO
SIGNIFICANT WEATHER AND/OR OBSTRUCTIONS TO VISIBILITY.


CITY           SKY/WX    TMP DP  RH WIND       PRES   REMARKS
WILLISTON      FAIR      27  19  72 W12       30.10F WCI  17
MINOT          CLOUDY    22  18  85 NW13      30.09S WCI  10
MINOT AFB      CLOUDY    20  19  92 NW10      30.08S WCI   9
BISMARCK       FAIR      32  28  85 NW8       30.10R
DICKINSON      FAIR      34  23  64 W14       30.06S
GARRISON         N/A     24  18  77 N15       30.08S WCI  11
HETTINGER ARPT MOSUNNY   37  21  52 W18       30.10F
JAMESTOWN      FAIR      28  22  78 W7        30.03F
CARRINGTON     CLOUDY    23  19  86 NW20      30.06S WCI   8
HAZEN            N/A     32  23  69 NW10      30.11S
LINTON           N/A     28  28 100 W12       30.10S WCI  18
MANDAN         FAIR      28  30 100 NW14      30.08S WCI  17
OAKES            N/A     23  23 100 W6        30.07S WCI  16
RUGBY          CLOUDY    19  19 100 NW17G24   30.06S WCI   4
STANLEY        CLOUDY    21  21 100 NW8       30.09S FOG     WCI  12
TIOGA          CLOUDY    18  18 100 NW8       30.09R FOG     WCI   7
WATFORD CITY   FAIR      30  21  69 W10       30.09S
$$

CITY           SKY/WX    TMP DP  RH WIND       PRES   REMARKS
GRAND FORKS    CLOUDY    22  20  92 S10       30.07F WCI  11
GRAND FORKS AF CLOUDY    23  19  86 S7        30.06F WCI  15
DEVILS LAKE    LGT SNOW  20  18  92 NW14      30.05S FOG     WCI   7
FARGO          CLOUDY    23  19  85 SW7       30.09F WCI  15
CANDO          CLOUDY    21  21 100 NW10      30.07R FOG     WCI  10
CAVALIER         N/A     21  21 100 S7        30.05F WCI  13
GRAFTON        CLOUDY    21  21 100 SW6       30.09S WCI  14
GWINNER          N/A     23  21  93 SW8       30.07F WCI  14
LANGDON        CLOUDY    21  21 100 NW15      30.02R FOG     WCI   8
ROLLA          CLOUDY    19  19 100 NW20G25   30.03R WCI   4
WALHALLA       FAIR      23  23 100 W6        30.05S WCI  16
$$

CITY           SKY/WX    TMP DP  RH WIND       PRES   REMARKS
ABERDEEN       PTSUNNY   31  22  69 VRB3      30.09S
MOBRIDGE       PTSUNNY   37  26  64 NW15      30.06S
BUFFALO          N/A     36  22  56 W17       30.06S
RAPID CITY     SUNNY     45  14  28 NW20G26   30.12F
GLASGOW        SUNNY     19  14  81 N5        30.11F WCI  12
SIDNEY         SUNNY     32  22  66 W6        30.11F
WOLF POINT     MOSUNNY   24  16  71 W10       30.12F WCI  14
GLENDIVE       SUNNY     35  22  58 W12       30.12R
MILES CITY     SUNNY     33  23  66 W12       30.15F
BAKER          SUNNY     33  23  66 W13       30.12F
$$

CITY           SKY/WX    TMP DP  RH WIND       PRES   REMARKS
BILLINGS       MOSUNNY   35  19  52 SW12      30.17F
GREAT FALLS    SUNNY     39  15  37 SW21G29   30.10F
REGINA         CLOUDY    21  19  93 SW7       30.04F FOG     WCI  13
ESTEVAN        CLOUDY    21  19  93 NW9       30.07F DRFTSNOWWCI  11
$$





USA.gov is the U.S. government's official web portal to all federal, state and local government web resources and services.